owner,sensor,date,latitude,longitude,vertical_datum,direction_of_sea_water_velocity,sea_water_speed,upward_sea_water_velocity,qcFlag 
TABS,ioos:station:wmo:42050:1,2000-08-01T00:00:00Z,28.8425,-94.2433,2.0,183.6274234,18.8076846,-99999.0,'11111222,11111222,99999999' 
TABS,ioos:station:wmo:42050:1,2000-08-01T00:30:00Z,28.8425,-94.2433,2.0,194.8655047,17.42315987,-99999.0,'11111222,11111222,99999999' 
TABS,ioos:station:wmo:42050:1,2000-08-01T01:00:00Z,28.8425,-94.2433,2.0,194.6342384,14.1697036,-99999.0,'11111222,11111222,99999999' 
TABS,ioos:station:wmo:42050:1,2000-08-01T01:30:00Z,28.8425,-94.2433,2.0,196.6872345,13.99958928,-99999.0,'11111222,11111222,99999999' 
TABS,ioos:station:wmo:42050:1,2000-08-01T02:00:00Z,28.8425,-94.2433,2.0,203.1239964,12.14585526,-99999.0,'11111222,11111222,99999999' 
TABS,ioos:station:wmo:42050:1,2000-08-01T02:30:00Z,28.8425,-94.2433,2.0,201.9920904,8.358193585,-99999.0,'11133222,11111222,99999999' 
TABS,ioos:station:wmo:42050:1,2000-08-01T03:00:00Z,28.8425,-94.2433,2.0,223.407023,7.377973977,-99999.0,'11133222,11111222,99999999' 
TABS,ioos:station:wmo:42050:1,2000-08-01T03:30:00Z,28.8425,-94.2433,2.0,243.3796565,4.664439945,-99999.0,'11133222,11111222,99999999' 
TABS,ioos:station:wmo:42050:1,2000-08-01T04:00:00Z,28.8425,-94.2433,2.0,290.879389,2.076342939,-99999.0,'11133222,11111222,99999999' 
TABS,ioos:station:wmo:42050:1,2000-08-01T04:30:00Z,28.8425,-94.2433,2.0,315.0003157,2.319310242,-99999.0,'11133222,11111222,99999999' 
TABS,ioos:station:wmo:42050:1,2000-08-01T05:00:00Z,28.8425,-94.2433,2.0,333.4352214,3.331741286,-99999.0,'11133222,11111222,99999999' 
TABS,ioos:station:wmo:42050:1,2000-08-01T05:30:00Z,28.8425,-94.2433,2.0,349.8516722,5.902346991,-99999.0,'11133222,11111222,99999999' 
TABS,ioos:station:wmo:42050:1,2000-08-01T06:00:00Z,28.8425,-94.2433,2.0,0.000210459,8.64,-99999.0,'11133222,11111222,99999999' 
TABS,ioos:station:wmo:42050:1,2000-08-01T06:30:00Z,28.8425,-94.2433,2.0,4.495655935,11.35493285,-99999.0,'11111222,11111222,99999999' 
TABS,ioos:station:wmo:42050:1,2000-08-01T07:00:00Z,28.8425,-94.2433,2.0,16.14113745,12.87762789,-99999.0,'11111222,11111222,99999999' 
TABS,ioos:station:wmo:42050:1,2000-08-01T07:30:00Z,28.8425,-94.2433,2.0,12.66616892,13.59073214,-99999.0,'11111222,11111222,99999999' 
TABS,ioos:station:wmo:42050:1,2000-08-01T08:00:00Z,28.8425,-94.2433,2.0,18.03163238,13.47163687,-99999.0,'11111222,11111222,99999999' 
TABS,ioos:station:wmo:42050:1,2000-08-01T08:30:00Z,28.8425,-94.2433,2.0,13.90016537,14.27811262,-99999.0,'11111222,11111222,99999999' 
TABS,ioos:station:wmo:42050:1,2000-08-01T09:00:00Z,28.8425,-94.2433,2.0,27.11712931,14.39200125,-99999.0,'11111222,11111222,99999999' 
TABS,ioos:station:wmo:42050:1,2000-08-01T09:30:00Z,28.8425,-94.2433,2.0,35.04605601,12.19017637,-99999.0,'11111222,11111222,99999999' 
TABS,ioos:station:wmo:42050:1,2000-08-01T10:00:00Z,28.8425,-94.2433,2.0,44.50703956,12.32532758,-99999.0,'11111222,11111222,99999999' 
TABS,ioos:station:wmo:42050:1,2000-08-01T10:30:00Z,28.8425,-94.2433,2.0,59.59542358,10.01770932,-99999.0,'11111222,11111222,99999999' 
TABS,ioos:station:wmo:42050:1,2000-08-01T11:00:00Z,28.8425,-94.2433,2.0,83.57227597,7.949974843,-99999.0,'11133222,11111222,99999999' 
TABS,ioos:station:wmo:42050:1,2000-08-01T11:30:00Z,28.8425,-94.2433,2.0,90.0,8.49,-99999.0,'11133222,11111222,99999999' 
TABS,ioos:station:wmo:42050:1,2000-08-01T12:00:00Z,28.8425,-94.2433,2.0,97.79205986,7.670827856,-99999.0,'11133222,11111222,99999999' 
TABS,ioos:station:wmo:42050:1,2000-08-01T12:30:00Z,28.8425,-94.2433,2.0,105.6707322,7.73760945,-99999.0,'11133222,11111222,99999999' 
TABS,ioos:station:wmo:42050:1,2000-08-01T13:00:00Z,28.8425,-94.2433,2.0,91.98863321,8.645206764,-99999.0,'11133222,11111222,99999999' 
TABS,ioos:station:wmo:42050:1,2000-08-01T13:30:00Z,28.8425,-94.2433,2.0,92.30699243,11.17906078,-99999.0,'11111222,11111222,99999999' 
TABS,ioos:station:wmo:42050:1,2000-08-01T14:00:00Z,28.8425,-94.2433,2.0,89.15165659,10.1311105,-99999.0,'11111222,11111222,99999999' 
TABS,ioos:station:wmo:42050:1,2000-08-01T14:30:00Z,28.8425,-94.2433,2.0,90.0,12.52,-99999.0,'11111222,11111222,99999999' 
TABS,ioos:station:wmo:42050:1,2000-08-01T15:00:00Z,28.8425,-94.2433,2.0,85.96684613,14.78661895,-99999.0,'11111222,11111222,99999999' 
TABS,ioos:station:wmo:42050:1,2000-08-01T15:30:00Z,28.8425,-94.2433,2.0,86.54702548,14.77682645,-99999.0,'11111222,11111222,99999999' 
TABS,ioos:station:wmo:42050:1,2000-08-01T16:00:00Z,28.8425,-94.2433,2.0,85.05898412,15.55781476,-99999.0,'11111222,11111222,99999999' 
TABS,ioos:station:wmo:42050:1,2000-08-01T16:30:00Z,28.8425,-94.2433,2.0,81.03605322,17.20007267,-99999.0,'11111222,11111222,99999999' 
TABS,ioos:station:wmo:42050:1,2000-08-01T17:00:00Z,28.8425,-94.2433,2.0,74.00347052,19.99421166,-99999.0,'11111222,11111222,99999999' 
TABS,ioos:station:wmo:42050:1,2000-08-01T17:30:00Z,28.8425,-94.2433,2.0,69.04288258,24.57573193,-99999.0,'11111222,11111222,99999999' 
TABS,ioos:station:wmo:42050:1,2000-08-01T18:00:00Z,28.8425,-94.2433,2.0,73.96897402,24.80459836,-99999.0,'11111222,11111222,99999999' 
TABS,ioos:station:wmo:42050:1,2000-08-01T18:30:00Z,28.8425,-94.2433,2.0,75.97635419,22.11924954,-99999.0,'11111222,11111222,99999999' 
TABS,ioos:station:wmo:42050:1,2000-08-01T19:00:00Z,28.8425,-94.2433,2.0,71.06965843,21.57702714,-99999.0,'11111222,11111222,99999999' 
TABS,ioos:station:wmo:42050:1,2000-08-01T19:30:00Z,28.8425,-94.2433,2.0,69.37558802,18.62360062,-99999.0,'11111222,11111222,99999999' 
TABS,ioos:station:wmo:42050:1,2000-08-01T20:00:00Z,28.8425,-94.2433,2.0,72.5159287,17.34115625,-99999.0,'11111222,11111222,99999999' 
TABS,ioos:station:wmo:42050:1,2000-08-01T20:30:00Z,28.8425,-94.2433,2.0,73.40258728,16.17388018,-99999.0,'11111222,11111222,99999999' 
TABS,ioos:station:wmo:42050:1,2000-08-01T21:00:00Z,28.8425,-94.2433,2.0,75.80193768,14.59585215,-99999.0,'11111222,11111222,99999999' 
TABS,ioos:station:wmo:42050:1,2000-08-01T21:30:00Z,28.8425,-94.2433,2.0,90.0,10.73,-99999.0,'11111222,11111222,99999999' 
TABS,ioos:station:wmo:42050:1,2000-08-01T22:00:00Z,28.8425,-94.2433,2.0,99.47175169,9.965866746,-99999.0,'11133222,11111222,99999999' 
TABS,ioos:station:wmo:42050:1,2000-08-01T22:30:00Z,28.8425,-94.2433,2.0,106.0527085,8.064452864,-99999.0,'11133222,11111222,99999999' 
TABS,ioos:station:wmo:42050:1,2000-08-01T23:00:00Z,28.8425,-94.2433,2.0,105.6024166,6.655238538,-99999.0,'11133222,11111222,99999999' 
TABS,ioos:station:wmo:42050:1,2000-08-01T23:30:00Z,28.8425,-94.2433,2.0,117.1854953,6.194271547,-99999.0,'11133222,11111222,99999999' 
TABS,ioos:station:wmo:42050:1,2000-08-02T00:00:00Z,28.8425,-94.2433,2.0,140.0482426,6.026715523,-99999.0,'11133222,11111222,99999999' 
TABS,ioos:station:wmo:42050:1,2000-08-02T00:30:00Z,28.8425,-94.2433,2.0,155.6732301,6.869970888,-99999.0,'11133222,11111222,99999999' 
TABS,ioos:station:wmo:42050:1,2000-08-02T01:00:00Z,28.8425,-94.2433,2.0,157.3101976,6.94769746,-99999.0,'11133222,11111222,99999999' 
TABS,ioos:station:wmo:42050:1,2000-08-02T01:30:00Z,28.8425,-94.2433,2.0,167.3285862,6.108780566,-99999.0,'11133222,11111222,99999999' 
TABS,ioos:station:wmo:42050:1,2000-08-02T02:00:00Z,28.8425,-94.2433,2.0,178.4404021,5.512041364,-99999.0,'11133222,11111222,99999999' 
TABS,ioos:station:wmo:42050:1,2000-08-02T02:30:00Z,28.8425,-94.2433,2.0,186.0509338,5.691713275,-99999.0,'11133222,11111222,99999999' 
TABS,ioos:station:wmo:42050:1,2000-08-02T03:00:00Z,28.8425,-94.2433,2.0,196.1984802,3.728002146,-99999.0,'11133222,11111222,99999999' 
TABS,ioos:station:wmo:42050:1,2000-08-02T03:30:00Z,28.8425,-94.2433,2.0,215.9647104,4.052505398,-99999.0,'11133222,11111222,99999999' 
TABS,ioos:station:wmo:42050:1,2000-08-02T04:00:00Z,28.8425,-94.2433,2.0,259.2927628,2.42216845,-99999.0,'11133222,11111222,99999999' 
TABS,ioos:station:wmo:42050:1,2000-08-02T04:30:00Z,28.8425,-94.2433,2.0,266.3932789,2.384722206,-99999.0,'11133222,11111222,99999999' 
TABS,ioos:station:wmo:42050:1,2000-08-02T05:00:00Z,28.8425,-94.2433,2.0,329.9077616,3.270856157,-99999.0,'11133222,11111222,99999999' 
TABS,ioos:station:wmo:42050:1,2000-08-02T05:30:00Z,28.8425,-94.2433,2.0,1.746487995,4.922286054,-99999.0,'11133222,11111222,99999999' 
TABS,ioos:station:wmo:42050:1,2000-08-02T06:00:00Z,28.8425,-94.2433,2.0,2.30617179,7.456037822,-99999.0,'11133222,11111222,99999999' 
TABS,ioos:station:wmo:42050:1,2000-08-02T06:30:00Z,28.8425,-94.2433,2.0,3.440697286,9.998019804,-99999.0,'11133222,11111222,99999999' 
TABS,ioos:station:wmo:42050:1,2000-08-02T07:00:00Z,28.8425,-94.2433,2.0,15.84161579,13.62756398,-99999.0,'11111222,11111222,99999999' 
TABS,ioos:station:wmo:42050:1,2000-08-02T07:30:00Z,28.8425,-94.2433,2.0,13.57781558,13.3326104,-99999.0,'11111222,11111222,99999999' 
TABS,ioos:station:wmo:42050:1,2000-08-02T08:00:00Z,28.8425,-94.2433,2.0,13.86875972,12.43242937,-99999.0,'11111222,11111222,99999999' 
TABS,ioos:station:wmo:42050:1,2000-08-02T08:30:00Z,28.8425,-94.2433,2.0,18.9913671,14.65784773,-99999.0,'11111222,11111222,99999999' 
TABS,ioos:station:wmo:42050:1,2000-08-02T09:00:00Z,28.8425,-94.2433,2.0,29.18986375,18.94595471,-99999.0,'11111222,11111222,99999999' 
TABS,ioos:station:wmo:42050:1,2000-08-02T09:30:00Z,28.8425,-94.2433,2.0,33.82026855,19.54768528,-99999.0,'11111222,11111222,99999999' 
TABS,ioos:station:wmo:42050:1,2000-08-02T10:00:00Z,28.8425,-94.2433,2.0,38.74709477,16.42481355,-99999.0,'11111222,11111222,99999999' 
TABS,ioos:station:wmo:42050:1,2000-08-02T10:30:00Z,28.8425,-94.2433,2.0,46.60161659,15.18044136,-99999.0,'11111222,11111222,99999999' 
TABS,ioos:station:wmo:42050:1,2000-08-02T11:00:00Z,28.8425,-94.2433,2.0,54.84845404,12.93981839,-99999.0,'11111222,11111222,99999999' 
TABS,ioos:station:wmo:42050:1,2000-08-02T11:30:00Z,28.8425,-94.2433,2.0,69.90831064,11.26558032,-99999.0,'11111222,11111222,99999999' 
TABS,ioos:station:wmo:42050:1,2000-08-02T12:00:00Z,28.8425,-94.2433,2.0,80.6680864,10.11385189,-99999.0,'11111222,11111222,99999999' 
TABS,ioos:station:wmo:42050:1,2000-08-02T12:30:00Z,28.8425,-94.2433,2.0,95.38638478,11.07892143,-99999.0,'11111222,11111222,99999999' 
TABS,ioos:station:wmo:42050:1,2000-08-02T13:00:00Z,28.8425,-94.2433,2.0,107.1702311,10.60253743,-99999.0,'11111222,11111222,99999999' 
TABS,ioos:station:wmo:42050:1,2000-08-02T13:30:00Z,28.8425,-94.2433,2.0,113.9454464,10.2742883,-99999.0,'11111222,11111222,99999999' 
TABS,ioos:station:wmo:42050:1,2000-08-02T14:00:00Z,28.8425,-94.2433,2.0,123.3750613,14.63321222,-99999.0,'11111222,11111222,99999999' 
TABS,ioos:station:wmo:42050:1,2000-08-02T14:30:00Z,28.8425,-94.2433,2.0,126.7584858,15.44002915,-99999.0,'11111222,11111222,99999999' 
TABS,ioos:station:wmo:42050:1,2000-08-02T15:00:00Z,28.8425,-94.2433,2.0,123.6776644,12.89400636,-99999.0,'11111222,11111222,99999999' 
TABS,ioos:station:wmo:42050:1,2000-08-02T15:30:00Z,28.8425,-94.2433,2.0,125.9834277,13.44560895,-99999.0,'11111222,11111222,99999999' 
TABS,ioos:station:wmo:42050:1,2000-08-02T16:00:00Z,28.8425,-94.2433,2.0,123.1077084,11.73528866,-99999.0,'11111222,11111222,99999999' 
TABS,ioos:station:wmo:42050:1,2000-08-02T16:30:00Z,28.8425,-94.2433,2.0,133.0991881,19.18729267,-99999.0,'11111222,11111222,99999999' 
TABS,ioos:station:wmo:42050:1,2000-08-02T17:00:00Z,28.8425,-94.2433,2.0,134.9998948,20.43538598,-99999.0,'11111222,11111222,99999999' 
TABS,ioos:station:wmo:42050:1,2000-08-02T17:30:00Z,28.8425,-94.2433,2.0,130.2951318,15.43156829,-99999.0,'11111222,11111222,99999999' 
TABS,ioos:station:wmo:42050:1,2000-08-02T18:00:00Z,28.8425,-94.2433,2.0,124.124862,11.69341695,-99999.0,'11111222,11111222,99999999' 
TABS,ioos:station:wmo:42050:1,2000-08-02T18:30:00Z,28.8425,-94.2433,2.0,124.3851027,10.28767223,-99999.0,'11111222,11111222,99999999' 
TABS,ioos:station:wmo:42050:1,2000-08-02T19:00:00Z,28.8425,-94.2433,2.0,118.752814,8.668846521,-99999.0,'11133222,11111222,99999999' 
TABS,ioos:station:wmo:42050:1,2000-08-02T19:30:00Z,28.8425,-94.2433,2.0,129.0040652,8.055588123,-99999.0,'11133222,11111222,99999999' 
TABS,ioos:station:wmo:42050:1,2000-08-02T20:00:00Z,28.8425,-94.2433,2.0,135.9775413,6.216373541,-99999.0,'11133222,11111222,99999999' 
TABS,ioos:station:wmo:42050:1,2000-08-02T20:30:00Z,28.8425,-94.2433,2.0,137.322501,5.059970356,-99999.0,'11133222,11111222,99999999' 
TABS,ioos:station:wmo:42050:1,2000-08-02T21:00:00Z,28.8425,-94.2433,2.0,149.0587609,4.337199557,-99999.0,'11133222,11111222,99999999' 
TABS,ioos:station:wmo:42050:1,2000-08-02T21:30:00Z,28.8425,-94.2433,2.0,153.4348005,3.331741286,-99999.0,'11133222,11111222,99999999' 
TABS,ioos:station:wmo:42050:1,2000-08-02T22:00:00Z,28.8425,-94.2433,2.0,149.0078392,3.476276744,-99999.0,'11133222,11111222,99999999' 
TABS,ioos:station:wmo:42050:1,2000-08-02T22:30:00Z,28.8425,-94.2433,2.0,171.8120067,4.212944339,-99999.0,'11133222,11111222,99999999' 
TABS,ioos:station:wmo:42050:1,2000-08-02T23:00:00Z,28.8425,-94.2433,2.0,178.396785,5.36209847,-99999.0,'11133222,11111222,99999999' 
TABS,ioos:station:wmo:42050:1,2000-08-02T23:30:00Z,28.8425,-94.2433,2.0,174.6522839,6.438019882,-99999.0,'11133222,11111222,99999999' 
TABS,ioos:station:wmo:42050:1,2000-08-03T00:00:00Z,28.8425,-94.2433,2.0,181.2273655,7.001606958,-99999.0,'11133222,11111222,99999999' 
TABS,ioos:station:wmo:42050:1,2000-08-03T00:30:00Z,28.8425,-94.2433,2.0,191.8731137,5.783744462,-99999.0,'11133222,11111222,99999999' 
TABS,ioos:station:wmo:42050:1,2000-08-03T01:00:00Z,28.8425,-94.2433,2.0,202.4929742,6.613093074,-99999.0,'11133222,11111222,99999999' 
TABS,ioos:station:wmo:42050:1,2000-08-03T01:30:00Z,28.8425,-94.2433,2.0,212.6102142,4.416197459,-99999.0,'11133222,11111222,99999999' 
TABS,ioos:station:wmo:42050:1,2000-08-03T02:00:00Z,28.8425,-94.2433,2.0,207.2132061,5.532386465,-99999.0,'11133222,11111222,99999999' 
TABS,ioos:station:wmo:42050:1,2000-08-03T02:30:00Z,28.8425,-94.2433,2.0,217.9486144,3.398602654,-99999.0,'11133222,11111222,99999999' 
TABS,ioos:station:wmo:42050:1,2000-08-03T03:00:00Z,28.8425,-94.2433,2.0,232.1839349,1.696231116,-99999.0,'11133222,11111222,99999999' 
TABS,ioos:station:wmo:42050:1,2000-08-03T03:30:00Z,28.8425,-94.2433,2.0,286.0911996,1.08240473,-99999.0,'11133222,11111222,99999999' 
TABS,ioos:station:wmo:42050:1,2000-08-03T04:00:00Z,28.8425,-94.2433,2.0,309.7425188,1.157454103,-99999.0,'11133222,11111222,99999999' 
TABS,ioos:station:wmo:42050:1,2000-08-03T04:30:00Z,28.8425,-94.2433,2.0,330.3440459,2.405036382,-99999.0,'11133222,11111222,99999999' 
TABS,ioos:station:wmo:42050:1,2000-08-03T05:00:00Z,28.8425,-94.2433,2.0,340.7616109,3.156263614,-99999.0,'11133222,11111222,99999999' 
TABS,ioos:station:wmo:42050:1,2000-08-03T05:30:00Z,28.8425,-94.2433,2.0,8.450889591,7.076835451,-99999.0,'11133222,11111222,99999999' 
TABS,ioos:station:wmo:42050:1,2000-08-03T06:00:00Z,28.8425,-94.2433,2.0,13.3196656,11.63291881,-99999.0,'11111222,11111222,99999999' 
TABS,ioos:station:wmo:42050:1,2000-08-03T06:30:00Z,28.8425,-94.2433,2.0,14.4829725,14.31488736,-99999.0,'11111222,11111222,99999999' 
TABS,ioos:station:wmo:42050:1,2000-08-03T07:00:00Z,28.8425,-94.2433,2.0,15.70184947,14.85430577,-99999.0,'11111222,11111222,99999999' 
TABS,ioos:station:wmo:42050:1,2000-08-03T07:30:00Z,28.8425,-94.2433,2.0,17.27387698,14.04339702,-99999.0,'11111222,11111222,99999999' 
TABS,ioos:station:wmo:42050:1,2000-08-03T08:00:00Z,28.8425,-94.2433,2.0,17.69585855,14.70581518,-99999.0,'11111222,11111222,99999999' 
TABS,ioos:station:wmo:42050:1,2000-08-03T08:30:00Z,28.8425,-94.2433,2.0,21.89517745,14.77579778,-99999.0,'11111222,11111222,99999999' 
TABS,ioos:station:wmo:42050:1,2000-08-03T09:00:00Z,28.8425,-94.2433,2.0,26.04401762,14.25775929,-99999.0,'11111222,11111222,99999999' 
TABS,ioos:station:wmo:42050:1,2000-08-03T09:30:00Z,28.8425,-94.2433,2.0,35.61918325,12.27692551,-99999.0,'11111222,11111222,99999999' 
TABS,ioos:station:wmo:42050:1,2000-08-03T10:00:00Z,28.8425,-94.2433,2.0,40.24641551,10.15362497,-99999.0,'11111222,11111222,99999999' 
TABS,ioos:station:wmo:42050:1,2000-08-03T10:30:00Z,28.8425,-94.2433,2.0,46.23896785,9.484518965,-99999.0,'11133222,11111222,99999999' 
TABS,ioos:station:wmo:42050:1,2000-08-03T11:00:00Z,28.8425,-94.2433,2.0,63.90105574,8.796982437,-99999.0,'11133222,11111222,99999999' 
TABS,ioos:station:wmo:42050:1,2000-08-03T11:30:00Z,28.8425,-94.2433,2.0,73.37456147,10.41541166,-99999.0,'11111222,11111222,99999999' 
TABS,ioos:station:wmo:42050:1,2000-08-03T12:00:00Z,28.8425,-94.2433,2.0,88.22487669,9.684647645,-99999.0,'11133222,11111222,99999999' 
TABS,ioos:station:wmo:42050:1,2000-08-03T12:30:00Z,28.8425,-94.2433,2.0,106.9975664,11.22012923,-99999.0,'11111222,11111222,99999999' 
TABS,ioos:station:wmo:42050:1,2000-08-03T13:00:00Z,28.8425,-94.2433,2.0,117.4843151,12.26417547,-99999.0,'11111222,11111222,99999999' 
TABS,ioos:station:wmo:42050:1,2000-08-03T13:30:00Z,28.8425,-94.2433,2.0,131.2669503,11.29524679,-99999.0,'11111222,11111222,99999999' 
TABS,ioos:station:wmo:42050:1,2000-08-03T14:00:00Z,28.8425,-94.2433,2.0,150.263431,8.407074402,-99999.0,'11133222,11111222,99999999' 
TABS,ioos:station:wmo:42050:1,2000-08-03T14:30:00Z,28.8425,-94.2433,2.0,154.4859788,10.72598713,-99999.0,'11111222,11111222,99999999' 
TABS,ioos:station:wmo:42050:1,2000-08-03T15:00:00Z,28.8425,-94.2433,2.0,161.3625366,11.64041666,-99999.0,'11111222,11111222,99999999' 
TABS,ioos:station:wmo:42050:1,2000-08-03T15:30:00Z,28.8425,-94.2433,2.0,172.5731645,10.36696677,-99999.0,'11111222,11111222,99999999' 
TABS,ioos:station:wmo:42050:1,2000-08-03T16:00:00Z,28.8425,-94.2433,2.0,173.8675814,9.735707473,-99999.0,'11133222,11111222,99999999' 
TABS,ioos:station:wmo:42050:1,2000-08-03T16:30:00Z,28.8425,-94.2433,2.0,169.43133,8.941683287,-99999.0,'11133222,11111222,99999999' 
TABS,ioos:station:wmo:42050:1,2000-08-03T17:00:00Z,28.8425,-94.2433,2.0,179.9997895,6.56,-99999.0,'11133222,11111222,99999999' 
TABS,ioos:station:wmo:42050:1,2000-08-03T17:30:00Z,28.8425,-94.2433,2.0,172.8353979,3.608171282,-99999.0,'11133222,11111222,99999999' 
TABS,ioos:station:wmo:42050:1,2000-08-03T18:00:00Z,28.8425,-94.2433,2.0,160.6190511,2.681976883,-99999.0,'11133222,11111222,99999999' 
TABS,ioos:station:wmo:42050:1,2000-08-03T18:30:00Z,28.8425,-94.2433,2.0,143.1299781,0.75,-99999.0,'11133222,11111222,99999999' 
TABS,ioos:station:wmo:42050:1,2000-08-03T19:00:00Z,28.8425,-94.2433,2.0,113.3977092,1.133181362,-99999.0,'11133222,11111222,99999999' 
TABS,ioos:station:wmo:42050:1,2000-08-03T19:30:00Z,28.8425,-94.2433,2.0,95.22591519,1.646845469,-99999.0,'11133222,11111222,99999999' 
TABS,ioos:station:wmo:42050:1,2000-08-03T20:00:00Z,28.8425,-94.2433,2.0,170.4331259,0.902551938,-99999.0,'11133222,11111222,99999999' 
TABS,ioos:station:wmo:42050:1,2000-08-03T20:30:00Z,28.8425,-94.2433,2.0,45.00010523,1.682914139,-99999.0,'11133222,11111222,99999999' 
TABS,ioos:station:wmo:42050:1,2000-08-03T21:00:00Z,28.8425,-94.2433,2.0,39.03563208,0.952680429,-99999.0,'11133222,11111222,99999999' 
TABS,ioos:station:wmo:42050:1,2000-08-03T21:30:00Z,28.8425,-94.2433,2.0,2.309267848,3.723022965,-99999.0,'11133222,11111222,99999999' 
TABS,ioos:station:wmo:42050:1,2000-08-03T22:00:00Z,28.8425,-94.2433,2.0,2.743909019,3.133592188,-99999.0,'11133222,11111222,99999999' 
TABS,ioos:station:wmo:42050:1,2000-08-03T22:30:00Z,28.8425,-94.2433,2.0,0.000210459,1.94,-99999.0,'11133222,11111222,99999999' 
TABS,ioos:station:wmo:42050:1,2000-08-03T23:00:00Z,28.8425,-94.2433,2.0,7.184461051,1.199416525,-99999.0,'11133222,11111222,99999999' 
TABS,ioos:station:wmo:42050:1,2000-08-03T23:30:00Z,28.8425,-94.2433,2.0,116.5649891,0.670820393,-99999.0,'11133222,11111222,99999999' 
TABS,ioos:station:wmo:42050:1,2000-08-04T00:00:00Z,28.8425,-94.2433,2.0,45.00010523,0.636396103,-99999.0,'11133222,11111222,99999999' 
TABS,ioos:station:wmo:42050:1,2000-08-04T00:30:00Z,28.8425,-94.2433,2.0,129.0354216,0.952680429,-99999.0,'11133222,11111222,99999999' 
TABS,ioos:station:wmo:42050:1,2000-08-04T01:00:00Z,28.8425,-94.2433,2.0,163.9090108,1.08240473,-99999.0,'11133222,11111222,99999999' 
TABS,ioos:station:wmo:42050:1,2000-08-04T01:30:00Z,28.8425,-94.2433,2.0,201.9336233,1.606268969,-99999.0,'11133222,11111222,99999999' 
TABS,ioos:station:wmo:42050:1,2000-08-04T02:00:00Z,28.8425,-94.2433,2.0,208.9089056,1.530751449,-99999.0,'11133222,11111222,99999999' 
TABS,ioos:station:wmo:42050:1,2000-08-04T02:30:00Z,28.8425,-94.2433,2.0,206.5647786,0.335410197,-99999.0,'11133222,11111222,99999999' 
TABS,ioos:station:wmo:42050:1,2000-08-04T03:00:00Z,28.8425,-94.2433,2.0,211.3038398,0.866083137,-99999.0,'11133222,11111222,99999999' 
TABS,ioos:station:wmo:42050:1,2000-08-04T03:30:00Z,28.8425,-94.2433,2.0,193.3412176,2.600173071,-99999.0,'11133222,11111222,99999999' 
TABS,ioos:station:wmo:42050:1,2000-08-04T04:00:00Z,28.8425,-94.2433,2.0,204.2855579,1.799222054,-99999.0,'11133222,11111222,99999999' 
TABS,ioos:station:wmo:42050:1,2000-08-04T04:30:00Z,28.8425,-94.2433,2.0,179.9997895,0.74,-99999.0,'11133222,11111222,99999999' 
TABS,ioos:station:wmo:42050:1,2000-08-04T05:00:00Z,28.8425,-94.2433,2.0,134.9998948,0.636396103,-99999.0,'11133222,11111222,99999999' 
TABS,ioos:station:wmo:42050:1,2000-08-04T05:30:00Z,28.8425,-94.2433,2.0,85.89491109,2.095375861,-99999.0,'11133222,11111222,99999999' 
TABS,ioos:station:wmo:42050:1,2000-08-04T06:00:00Z,28.8425,-94.2433,2.0,45.00010523,2.319310242,-99999.0,'11133222,11111222,99999999' 
TABS,ioos:station:wmo:42050:1,2000-08-04T06:30:00Z,28.8425,-94.2433,2.0,54.72029845,3.099193443,-99999.0,'11133222,11111222,99999999' 
TABS,ioos:station:wmo:42050:1,2000-08-04T07:00:00Z,28.8425,-94.2433,2.0,35.46848196,3.84314975,-99999.0,'11133222,11111222,99999999' 
TABS,ioos:station:wmo:42050:1,2000-08-04T07:30:00Z,28.8425,-94.2433,2.0,34.7619315,6.524415683,-99999.0,'11133222,11111222,99999999' 
TABS,ioos:station:wmo:42050:1,2000-08-04T08:00:00Z,28.8425,-94.2433,2.0,35.527401,6.401757571,-99999.0,'11133222,11111222,99999999' 
TABS,ioos:station:wmo:42050:1,2000-08-04T08:30:00Z,28.8425,-94.2433,2.0,40.38696946,7.824736417,-99999.0,'11133222,11111222,99999999' 
TABS,ioos:station:wmo:42050:1,2000-08-04T09:00:00Z,28.8425,-94.2433,2.0,35.73374896,9.177804748,-99999.0,'11133222,11111222,99999999' 
TABS,ioos:station:wmo:42050:1,2000-08-04T09:30:00Z,28.8425,-94.2433,2.0,40.28342548,6.449441836,-99999.0,'11133222,11111222,99999999' 
TABS,ioos:station:wmo:42050:1,2000-08-04T10:00:00Z,28.8425,-94.2433,2.0,45.00010523,10.11162697,-99999.0,'11111222,11111222,99999999' 
TABS,ioos:station:wmo:42050:1,2000-08-04T10:30:00Z,28.8425,-94.2433,2.0,53.92033391,8.846841244,-99999.0,'11133222,11111222,99999999' 
TABS,ioos:station:wmo:42050:1,2000-08-04T11:00:00Z,28.8425,-94.2433,2.0,57.53641957,5.831234861,-99999.0,'11133222,11111222,99999999' 
TABS,ioos:station:wmo:42050:1,2000-08-04T11:30:00Z,28.8425,-94.2433,2.0,53.4089973,5.754068126,-99999.0,'11133222,11111222,99999999' 
TABS,ioos:station:wmo:42050:1,2000-08-04T12:00:00Z,28.8425,-94.2433,2.0,65.14765952,6.733572603,-99999.0,'11133222,11111222,99999999' 
TABS,ioos:station:wmo:42050:1,2000-08-04T12:30:00Z,28.8425,-94.2433,2.0,84.25135003,4.492593906,-99999.0,'11133222,11111222,99999999' 
TABS,ioos:station:wmo:42050:1,2000-08-04T13:00:00Z,28.8425,-94.2433,2.0,92.67958814,6.417016441,-99999.0,'11133222,11111222,99999999' 
TABS,ioos:station:wmo:42050:1,2000-08-04T13:30:00Z,28.8425,-94.2433,2.0,104.0550641,7.370658044,-99999.0,'11133222,11111222,99999999' 
TABS,ioos:station:wmo:42050:1,2000-08-04T14:00:00Z,28.8425,-94.2433,2.0,116.5649891,6.99889277,-99999.0,'11133222,11111222,99999999' 
TABS,ioos:station:wmo:42050:1,2000-08-04T14:30:00Z,28.8425,-94.2433,2.0,122.0936036,7.566273852,-99999.0,'11133222,11111222,99999999' 
TABS,ioos:station:wmo:42050:1,2000-08-04T15:00:00Z,28.8425,-94.2433,2.0,132.6293036,7.692834328,-99999.0,'11133222,11111222,99999999' 
TABS,ioos:station:wmo:42050:1,2000-08-04T15:30:00Z,28.8425,-94.2433,2.0,142.4265199,7.330552503,-99999.0,'11133222,11111222,99999999' 
TABS,ioos:station:wmo:42050:1,2000-08-04T16:00:00Z,28.8425,-94.2433,2.0,146.6851969,6.77303477,-99999.0,'11133222,11111222,99999999' 